This is the latest recevied weather packets stored in our database for station/object N9BSW. If no packets are shown the sender has not sent any weather packets the latest 10 day(s).
| Time | Temp. | Humidity | Pressure | Rain* | Wind** | Luminosity | Snow |
|---|---|---|---|---|---|---|---|
| 1778028277 | 8.89° C | 96% | 1008.6 hPa | 0 mm | - | 1 W/m² | - |
| 1778027972 | 8.89° C | 96% | 1008.3 hPa | 0 mm | - | 1 W/m² | - |
| 1778027669 | 8.89° C | 96% | 1008.3 hPa | 0 mm | - | 2 W/m² | - |
| 1778027366 | 8.89° C | 96% | 1008.3 hPa | 0 mm | - | 3 W/m² | - |
| 1778027062 | 8.89° C | 96% | 1008.4 hPa | 0 mm | - | 3 W/m² | - |
| 1778026757 | 8.89° C | 96% | 1008.3 hPa | 0 mm | - | 5 W/m² | - |
| 1778026455 | 8.89° C | 96% | 1008.2 hPa | 0 mm | - | 3 W/m² | - |
| 1778026152 | 8.89° C | 96% | 1008 hPa | 0 mm | - | 4 W/m² | - |
| 1778025849 | 8.89° C | 95% | 1008 hPa | 0 mm | - | 12 W/m² | - |
| 1778025546 | 8.89° C | 95% | 1007.8 hPa | 0 mm | - | 11 W/m² | - |
| 1778025244 | 8.89° C | 95% | 1007.9 hPa | 0 mm | - | 21 W/m² | - |
| 1778024940 | 8.89° C | 95% | 1008.2 hPa | 0 mm | - | 36 W/m² | - |
| 1778024638 | 8.89° C | 95% | 1008.4 hPa | 0 mm | - | 28 W/m² | - |
| 1778024334 | 8.89° C | 95% | 1008.3 hPa | 0 mm | - | 25 W/m² | - |
| 1778024033 | 8.89° C | 96% | 1008.2 hPa | 0 mm | - | 17 W/m² | - |
| 1778023730 | 8.89° C | 96% | 1008.7 hPa | 0 mm | - | 15 W/m² | - |
| 1778023428 | 8.89° C | 96% | 1009 hPa | 0 mm | - | 18 W/m² | - |
| 1778023124 | 8.89° C | 96% | 1008.5 hPa | 0 mm | - | 28 W/m² | - |
| 1778022822 | 8.89° C | 96% | 1008.4 hPa | 0 mm | - | 29 W/m² | - |
| 1778022520 | 8.89° C | 96% | 1008.4 hPa | 0 mm | - | 16 W/m² | - |
| 1778022217 | 8.89° C | 96% | 1009.1 hPa | 0 mm | - | 12 W/m² | - |
| 1778021913 | 8.89° C | 96% | 1008.6 hPa | 0 mm | - | 13 W/m² | - |
| 1778021611 | 8.89° C | 95% | 1008.6 hPa | 0 mm | - | 25 W/m² | - |
| 1778021311 | 8.89° C | 95% | 1008.6 hPa | 0 mm | - | 31 W/m² | - |
| 1778021010 | 9.44° C | 96% | 1008.6 hPa | 0 mm | - | 25 W/m² | - |
* Rain latest hour (hover to see other rain measurements)
** Current wind speed in m/s (hover to see current wind gust speed)